Flag for Canada Weather past 2 weeks in Riverview, New Brunswick, Canada

Now
46 °F

Light rain. Low clouds.


Feels Like: 40 °F
Forecast: 48 / 52 °F
Wind: 15 mph from Northeast

Location: Moncton

Current Time: Oct 23, 2014 at 12:50:22 AM

Latest Report: Oct 23, 2014 at 12:00 AM


Visibility: 10 mi

Pressure: 30.28 "Hg

Humidity: 93%

Dew point: 45 °F

Location of RiverviewLocation

Historic Weather in Riverview — Graph

°F

Riverview temperature yesterday

Maximum temperature yesterday: 50 °F (at 12:00 PM)
Minimum temperature yesterday: 41 °F (at 12:00 AM)
Average temperature yesterday: 46 °F

Past Weeks' High & Low Weather Summary

 TemperatureHumidityPressure
High75 °F (Oct 15, 3:00 PM)100% (Oct 9, 2:00 AM)30.38 "Hg (Oct 9, 2:00 AM)
Low30 °F (Oct 21, 7:00 AM)39% (Oct 13, 2:00 PM)29.45 "Hg (Oct 19, 3:00 AM)
Average52 °F80%29.95 "Hg
* Reported Oct 7 11:00 PM — Oct 22 11:00 PM, Riverview, Weather by CustomWeather, © 2014

Note: Actual official high and low records may vary slightly from our data, if they occured in-between our weather recording intervals... More about our weather records

Advertising

Riverview weather history for previous 24 hours

 ConditionsComfort  
Time TempWeatherWind HumidityBarometerVisibility
11:00 PM
Oct 22
46 °FLight rain. Mostly cloudy.16 mph93%30.29 "Hg10 mi
10:00 PM46 °FLight rain. Mostly cloudy.17 mph93%30.29 "Hg12 mi
9:00 PM46 °FLight rain. Overcast.16 mph87%30.32 "Hg12 mi
8:00 PM46 °FLight rain. Overcast.18 mph87%30.31 "Hg12 mi
7:00 PM45 °FLight rain. More clouds than sun.18 mph93%30.30 "Hg12 mi
6:00 PM46 °FLight rain. Fog.17 mph87%30.32 "Hg6 mi
5:00 PM46 °FLight rain. Fog.15 mph87%30.33 "Hg6 mi
4:00 PM46 °FLight rain. More clouds than sun.15 mph87%30.34 "Hg10 mi
3:00 PM48 °FLight rain. Overcast.10 mph76%30.35 "Hg15 mi
2:00 PM50 °FPartly sunny.16 mph67%30.35 "Hg15 mi
1:00 PM50 °FBroken clouds.20 mph71%30.35 "Hg15 mi
12:00 PM50 °FBroken clouds.20 mph71%30.36 "Hg15 mi
11:00 AM48 °FBroken clouds.12 mph76%30.38 "Hg15 mi
10:00 AM48 °FPartly sunny.14 mph76%30.36 "Hg15 mi
9:00 AM46 °FPartly sunny.12 mph76%30.36 "Hg15 mi
8:00 AM45 °FPassing clouds.8 mph81%30.34 "Hg15 mi
7:00 AM45 °FPassing clouds.9 mph76%30.32 "Hg15 mi
6:00 AM45 °FPassing clouds.10 mph76%30.31 "Hg15 mi
5:00 AM45 °FOvercast.9 mph81%30.30 "Hg15 mi
4:47 AM43 °FMostly cloudy.8 mph87%30.31 "Hg15 mi
4:00 AM43 °FSprinkles. Mostly cloudy.9 mph81%30.31 "Hg15 mi
3:00 AM45 °FSprinkles. Overcast.9 mph71%30.30 "Hg15 mi
2:00 AM43 °FSprinkles. Overcast.7 mph81%30.30 "Hg15 mi
1:00 AM43 °FOvercast.7 mph81%30.29 "Hg15 mi
12:00 AM41 °FMostly cloudy.5 mph81%30.27 "Hg15 mi
Weather by CustomWeather, © 2014

See weather overviewHow to use our weather pages